Theta_e
303 304 305 306 306 307 307 309 309 309 308 309 310 311 311 313 314 316 319 327 331 339 343 346 346 347 347 341 343 341 346 350 350 353 353 353 352 353 353 354 353 353 352
303 303 304 305 305 305 305 306 307 307 307 308 309 310 311 312 313 315 315 318 327 331 339 343 344 345 347 349 345 347 346 350 351 353 352 353 353 352 353 353 352 353 352
304 303 303 302 304 304 305 306 307 307 306 308 307 308 310 311 311 311 313 315 318 325 332 338 340 343 345 346 348 349 349 349 350 351 351 352 352 352 353 353 353 353 352
305 302 301 302 303 304 304 305 306 305 304 305 305 306 308 309 309 309 311 313 316 317 323 333 338 339 343 342 344 344 345 341 346 347 350 352 352 351 353 353 353 353 352
306 302 302 302 304 304 305 305 305 303 303 303 305 306 305 306 307 309 308 310 312 317 318 328 334 339 340 340 341 343 339 335 342 340 346 350 351 351 351 351 352 352 352
306 302 302 303 304 303 303 304 302 303 302 301 304 304 304 305 304 305 307 311 315 315 318 321 327 332 339 339 342 342 343 343 341 338 338 343 345 350 351 351 351 351 351
305 301 301 302 303 302 302 302 302 301 300 302 298 302 301 303 303 307 309 313 312 312 320 320 326 328 330 338 339 341 344 340 337 337 340 341 343 347 350 349 350 350 350
305 304 302 302 303 302 302 301 300 299 299 301 297 297 296 298 305 307 309 310 309 312 319 322 325 325 326 328 332 338 341 342 340 337 343 341 344 346 349 349 349 349 349
306 304 304 304 304 302 301 301 301 300 298 300 301 301 298 296 299 303 308 308 309 311 319 319 320 324 326 325 329 333 338 339 341 343 343 342 344 345 347 349 349 349 349
305 306 306 305 304 303 302 302 305 301 299 298 299 305 305 304 299 297 303 307 308 311 315 316 318 321 323 324 328 332 333 335 338 338 341 342 344 345 346 346 347 348 349
305 307 307 306 304 303 303 303 303 301 300 299 299 298 300 304 304 301 298 302 306 308 315 314 315 319 322 324 326 330 332 333 336 336 338 340 339 343 345 345 346 347 348
304 306 306 305 305 304 303 303 302 303 301 303 305 302 299 302 302 302 300 301 302 307 312 313 313 316 318 320 325 327 328 328 330 333 333 333 337 341 340 344 346 348 349
302 305 304 304 304 304 305 303 302 302 302 300 300 300 300 304 304 305 303 301 301 305 309 312 312 313 315 317 319 321 323 323 323 326 330 329 331 334 337 340 344 345 346
303 304 304 304 304 304 304 303 301 302 303 305 300 301 303 304 305 305 305 302 300 303 307 306 312 311 312 314 318 318 316 318 319 320 322 326 331 333 334 336 338 339 340
306 305 305 304 303 302 302 302 301 301 301 301 302 301 303 303 305 305 305 305 303 299 302 306 306 309 311 312 315 312 313 317 316 316 317 319 321 324 326 330 332 333 335
304 304 304 303 302 300 300 300 303 301 300 305 304 300 301 303 305 305 304 304 305 304 301 306 306 307 308 309 313 310 312 314 315 314 314 314 315 317 319 321 324 329 331
303 304 304 302 300 299 298 298 300 302 300 301 302 300 303 302 303 303 304 304 304 304 304 305 307 307 306 305 306 308 309 309 311 313 313 312 311 311 313 314 315 320 325
304 305 305 303 301 299 297 298 301 301 300 300 301 300 300 305 303 303 304 303 304 305 305 303 304 304 303 305 305 305 306 308 308 313 312 311 310 309 309 309 310 311 312
304 304 304 303 302 299 297 298 303 302 302 302 301 300 303 303 302 303 304 304 304 305 305 304 302 304 303 304 303 304 304 305 307 310 309 311 311 310 309 308 307 306 306
304 304 303 302 302 298 297 298 301 301 305 302 301 301 302 301 302 304 304 304 304 305 305 303 302 302 302 303 303 301 301 303 302 305 306 306 307 309 309 309 308 307 305
304 304 303 303 301 299 298 298 299 303 302 300 299 300 302 304 307 306 304 304 304 303 303 302 301 301 300 300 299 301 300 302 303 303 301 300 301 302 304 305 306 306 305
304 303 303 303 301 300 302 303 302 304 303 302 296 297 299 301 302 305 307 306 307 303 301 301 301 300 301 300 301 300 300 298 298 304 300 299 301 299 302 303 304 304 303
303 302 302 302 304 298 301 301 303 302 300 300 298 295 297 299 301 301 305 305 304 305 307 302 300 300 300 301 301 300 300 297 299 301 300 297 299 297 300 302 303 302 302
302 301 302 302 304 300 301 299 301 298 300 304 301 296 294 294 300 300 303 303 302 301 301 304 303 303 303 304 303 304 304 303 301 302 303 296 298 296 297 298 301 301 301
301 301 302 304 301 299 301 299 297 296 298 301 304 301 299 295 299 299 298 299 298 300 305 305 303 304 304 303 305 305 303 299 299 300 302 298 297 293 294 294 297 300 299
302 302 302 302 302 301 300 298 297 295 294 300 302 302 302 300 299 298 294 295 296 298 298 302 301 304 302 304 305 305 303 301 301 302 304 299 297 294 291 296 293 293 294
Wind_Speed
5 4 5 4 4 5 4 6 6 7 7 8 8 8 8 8 8 5 3 18 19 20 20 22 18 22 25 22 23 20 30 31 26 22 22 21 21 20 19 19 19 18 17
4 4 4 4 5 4 4 4 4 5 5 7 9 10 10 8 8 9 6 7 16 17 18 18 18 20 24 29 33 30 34 35 31 26 23 22 21 21 21 20 20 20 19
5 5 4 4 4 5 6 5 5 5 5 6 8 9 9 10 8 9 9 7 8 13 17 18 17 15 20 19 23 30 25 31 29 24 22 21 21 21 21 21 20 20 20
5 4 4 4 4 5 4 4 4 4 4 5 6 8 9 10 11 10 8 8 7 5 10 16 18 16 17 14 19 20 24 21 22 20 20 21 21 21 21 21 21 21 20
5 4 4 4 5 4 4 4 5 3 5 6 8 10 9 8 9 9 10 9 10 8 6 12 17 17 19 17 24 24 21 22 18 12 14 17 21 22 22 22 22 21 21
3 3 4 5 4 4 5 5 5 3 3 5 8 10 9 7 4 5 6 7 5 11 8 7 6 6 19 19 20 21 26 19 20 13 18 18 22 23 22 22 22 21 21
2 3 3 4 4 4 4 5 4 5 4 3 4 8 6 6 2 9 6 7 10 11 10 5 5 4 5 17 19 23 24 29 23 29 25 28 25 24 22 23 22 21 21
4 3 3 4 4 3 5 5 4 4 3 4 3 3 6 6 4 5 6 9 12 9 9 10 5 3 3 3 8 20 27 34 36 37 39 34 26 25 23 24 24 23 22
5 5 5 4 5 3 3 4 3 4 3 4 3 2 4 3 8 3 6 8 13 10 7 7 8 7 4 3 6 11 20 22 26 29 26 25 27 28 27 26 24 22 23
6 5 5 4 4 3 5 4 4 3 1 4 3 2 3 3 3 6 5 5 9 7 9 6 5 5 4 3 4 9 16 18 23 24 26 25 22 27 28 26 24 21 21
4 3 4 4 4 4 5 5 6 5 2 2 2 3 2 3 4 3 6 9 7 7 5 5 8 4 4 4 5 7 11 9 18 22 24 24 23 27 25 24 24 22 21
3 3 5 4 4 4 4 4 5 5 4 3 2 2 2 2 4 3 3 7 7 5 5 6 7 6 5 6 12 18 14 10 6 13 14 11 14 24 24 23 24 21 23
3 4 3 4 3 4 5 4 5 5 5 3 4 3 2 3 2 3 3 4 3 4 3 1 6 6 6 6 8 15 20 17 15 9 13 13 13 16 14 15 16 16 20
3 3 4 4 5 5 5 5 3 4 5 4 6 4 3 3 3 3 3 3 3 2 2 3 3 5 6 6 13 18 10 20 21 20 17 13 5 4 7 8 8 12 15
3 4 4 4 6 6 6 5 4 5 5 4 4 5 3 3 3 3 3 3 2 3 2 3 2 6 6 6 11 8 9 20 22 21 19 21 20 19 11 4 9 10 13
3 5 5 5 5 6 6 6 4 4 6 4 3 5 4 3 4 4 3 3 3 3 2 1 3 4 6 5 9 7 10 15 21 20 21 22 21 20 18 16 10 9 19
3 4 4 4 4 6 6 6 6 5 6 6 6 5 5 5 4 5 4 3 3 3 3 1 2 5 5 5 7 7 8 8 9 21 20 22 22 23 22 20 21 18 9
3 2 3 4 5 6 6 6 6 6 6 6 6 6 5 4 6 6 5 5 4 3 2 1 3 3 4 5 4 6 6 6 7 18 20 20 21 23 22 21 22 22 18
4 4 3 3 4 5 6 6 5 5 6 6 6 6 5 5 6 6 7 6 5 3 3 2 2 1 2 2 4 4 5 6 6 16 17 20 20 21 22 21 22 23 21
3 3 2 2 3 5 6 6 6 5 5 5 6 5 5 5 5 7 7 8 7 2 2 4 3 2 2 2 3 3 4 4 5 6 11 14 16 19 20 19 20 21 18
2 1 1 1 3 4 4 7 6 5 5 6 6 6 5 9 12 9 4 7 8 4 4 3 2 1 1 1 2 2 1 2 3 3 5 5 6 6 8 12 13 17 15
2 2 2 2 2 3 8 11 9 4 4 4 5 6 6 9 9 12 9 10 8 4 4 2 1 1 1 2 1 0 1 1 1 2 3 4 4 5 5 5 13 13 15
2 3 3 3 3 3 8 10 11 4 3 2 4 5 5 5 9 6 7 6 8 9 6 1 1 1 0 2 2 0 1 1 1 1 2 2 3 4 4 4 11 10 11
2 2 3 3 2 4 7 8 7 4 5 2 2 4 4 6 7 8 5 5 5 4 4 3 1 0 1 2 2 1 2 2 2 1 1 2 1 2 2 3 7 8 9
2 2 3 3 3 5 7 8 6 5 5 5 2 2 4 6 10 11 6 5 5 4 6 3 1 1 3 6 4 2 2 1 2 2 2 3 2 1 0 1 2 7 6
2 2 3 4 7 5 4 7 6 3 5 4 4 4 6 5 7 8 5 5 5 3 5 5 2 1 3 3 5 3 3 2 2 2 3 3 3 3 1 2 1 2 3
Wind_Direction
18 2 1 5 359 356 358 351 349 348 347 345 338 330 323 318 307 296 288 305 311 294 278 267 245 238 226 223 228 233 231 230 214 201 196 196 198 199 200 200 198 199 202
31 19 7 359 354 346 337 336 335 333 326 330 331 326 314 304 299 300 289 287 297 301 275 263 254 249 243 230 229 232 225 224 212 198 200 197 201 200 204 205 204 200 201
30 18 13 355 341 328 333 339 333 337 335 324 317 317 306 297 296 293 291 283 285 286 290 271 256 246 241 235 238 239 237 225 218 203 196 201 204 206 206 207 206 205 204
39 19 6 350 329 326 322 335 326 327 320 316 311 299 298 297 297 295 289 291 292 282 279 279 265 242 240 240 244 242 241 286 228 221 200 199 204 208 208 211 212 207 207
26 24 2 334 340 337 337 337 328 332 325 320 313 308 303 296 301 300 291 283 285 294 259 254 263 247 239 234 242 240 239 251 234 223 235 211 211 209 208 211 211 211 209
24 12 352 345 346 345 347 341 325 321 289 296 311 307 303 289 280 296 302 303 306 321 296 246 236 233 235 232 229 225 222 217 237 260 258 249 227 213 208 211 212 211 209
10 7 348 347 344 347 324 324 306 320 316 319 318 320 303 322 243 338 339 343 340 335 321 276 247 231 239 241 240 235 216 204 225 243 254 250 243 228 208 209 210 211 211
341 336 342 333 348 356 345 331 334 318 293 327 323 296 340 332 328 323 349 343 349 332 354 6 311 257 268 221 228 233 225 210 213 227 230 237 234 232 221 211 209 208 212
316 339 340 346 344 343 327 312 321 338 309 306 334 281 328 326 326 328 339 346 347 333 355 3 1 29 10 258 268 248 232 229 229 228 229 246 231 230 225 216 211 206 209
326 314 326 344 334 324 330 315 319 297 280 306 329 263 231 264 312 319 329 317 339 328 345 1 350 7 15 353 314 253 241 242 235 236 242 255 235 236 221 218 217 208 210
357 349 337 324 344 338 325 329 330 333 306 276 270 313 311 283 253 273 312 327 328 343 341 356 349 329 11 6 354 9 238 243 231 230 232 228 242 233 222 215 215 210 211
344 358 344 347 334 336 339 328 321 317 325 304 282 300 264 304 303 286 286 322 316 307 318 9 344 355 29 26 35 36 35 31 351 246 233 230 235 225 224 217 215 208 213
323 330 346 350 332 327 335 341 334 332 331 344 329 304 272 283 288 276 272 286 304 311 329 13 13 348 34 27 40 43 38 41 47 27 230 221 246 253 226 231 221 215 218
278 298 338 356 341 347 346 350 327 324 332 333 343 329 292 293 284 293 297 292 305 280 329 354 32 359 15 39 44 46 34 41 44 46 49 49 185 229 268 253 243 225 220
311 334 338 360 2 358 347 339 343 333 338 326 326 329 306 305 295 298 285 289 275 304 340 354 318 358 17 18 44 33 38 48 47 45 48 57 55 59 43 270 232 231 222
355 10 3 20 15 359 354 346 334 340 343 329 333 343 330 309 324 308 302 295 303 287 280 337 22 10 14 24 41 23 38 43 50 53 47 52 57 59 56 48 47 226 217
1 6 358 18 6 2 352 353 342 339 348 331 332 346 332 334 330 329 317 305 281 286 277 96 46 12 24 26 25 27 31 31 41 50 54 55 52 55 51 48 45 35 49
324 7 12 18 357 356 346 353 342 329 335 334 327 340 343 333 337 323 320 307 292 268 275 136 51 36 23 16 17 35 28 38 42 52 56 55 57 56 53 49 51 45 41
4 12 22 28 1 349 346 336 331 327 321 335 339 340 331 343 337 332 332 329 310 276 245 144 114 60 27 8 31 25 18 23 34 50 39 46 54 55 56 50 52 45 30
7 11 13 32 3 356 337 333 332 334 331 355 356 349 357 344 326 332 344 340 335 5 94 104 82 65 48 3 53 30 43 24 40 36 44 44 43 46 51 51 55 57 46
321 351 7 337 352 344 336 332 325 335 353 2 359 352 352 7 1 352 343 349 355 11 56 78 75 106 98 358 31 347 43 19 28 41 45 37 37 40 38 41 55 66 68
286 345 322 254 298 323 333 344 342 336 12 14 3 349 349 357 350 356 358 15 24 13 31 66 59 77 67 93 102 301 7 8 46 323 61 41 37 45 35 41 54 56 71
274 306 293 269 263 296 323 343 355 348 9 13 4 359 349 343 350 347 343 6 25 29 39 15 47 31 155 177 137 109 334 325 122 176 95 53 24 54 21 40 61 63 62
295 299 293 266 261 298 319 343 2 357 343 350 9 3 6 344 341 345 360 27 28 20 7 360 342 201 230 168 171 243 307 341 54 194 190 103 74 60 56 4 57 61 60
325 294 278 247 220 275 313 344 12 357 343 352 17 11 7 359 338 360 14 10 353 350 342 325 18 275 190 199 235 307 313 140 235 241 172 122 167 113 27 25 1 66 62
252 264 271 224 213 237 288 346 2 358 3 353 6 4 17 8 0 4 17 342 343 313 330 336 334 268 226 254 260 241 265 231 231 259 197 133 145 149 149 201 155 88 67